TimeEDT,TemperatureF,Dew PointF,Humidity,Sea Level PressureIn,VisibilityMPH,Wind Direction,Wind SpeedMPH,Gust SpeedMPH,PrecipitationIn,Events,Conditions,WindDirDegrees,DateUTC
12:15 AM,51.3,49.3,93,29.95,10.0,Calm,Calm,-,N/A,,Scattered Clouds,0,2013-05-08 04:15:00
12:35 AM,51.3,49.5,94,29.95,10.0,Calm,Calm,-,N/A,,Scattered Clouds,0,2013-05-08 04:35:00
12:55 AM,50.9,49.1,94,29.96,7.0,South,3.5,-,N/A,,Mostly Cloudy,170,2013-05-08 04:55:00
1:15 AM,49.8,48.2,94,29.95,10.0,SSW,3.5,-,N/A,,Scattered Clouds,200,2013-05-08 05:15:00
1:35 AM,50.0,48.2,94,29.94,10.0,SW,3.5,-,N/A,,Scattered Clouds,220,2013-05-08 05:35:00
1:55 AM,48.6,47.3,95,29.94,7.0,Calm,Calm,-,N/A,,Clear,0,2013-05-08 05:55:00
2:15 AM,49.5,48.2,95,29.94,7.0,Calm,Calm,-,N/A,,Clear,0,2013-05-08 06:15:00
2:35 AM,49.3,48.0,95,29.93,7.0,Calm,Calm,-,N/A,,Clear,0,2013-05-08 06:35:00
2:55 AM,49.3,47.8,95,29.93,7.0,Calm,Calm,-,N/A,,Clear,0,2013-05-08 06:55:00
3:15 AM,49.6,48.4,95,29.93,7.0,Calm,Calm,-,N/A,,Clear,0,2013-05-08 07:15:00
3:35 AM,49.5,48.2,95,29.94,10.0,Calm,Calm,-,N/A,,Clear,0,2013-05-08 07:35:00
3:55 AM,50.2,48.9,95,29.94,10.0,Calm,Calm,-,N/A,,Clear,0,2013-05-08 07:55:00
4:15 AM,50.2,49.1,96,29.94,10.0,Calm,Calm,-,N/A,,Mostly Cloudy,0,2013-05-08 08:15:00
4:35 AM,50.7,49.3,95,29.94,10.0,Calm,Calm,-,N/A,Rain,Light Rain,0,2013-05-08 08:35:00
5:15 AM,51.1,49.6,95,29.94,7.0,Calm,Calm,-,N/A,Rain,Rain,0,2013-05-08 09:15:00
5:35 AM,50.9,49.5,95,29.94,7.0,Calm,Calm,-,N/A,,Light Drizzle,0,2013-05-08 09:35:00
5:55 AM,51.1,50.0,96,29.94,5.0,Calm,Calm,-,N/A,,Mostly Cloudy,0,2013-05-08 09:55:00
6:15 AM,51.4,50.2,95,29.95,7.0,Calm,Calm,-,N/A,,Overcast,0,2013-05-08 10:15:00
6:55 AM,51.8,50.4,95,29.97,7.0,SSW,3.5,-,N/A,,Overcast,210,2013-05-08 10:55:00
7:15 AM,52.0,50.5,95,29.97,7.0,Calm,Calm,-,N/A,,Mostly Cloudy,0,2013-05-08 11:15:00
7:35 AM,52.7,51.3,95,29.98,5.0,Calm,Calm,-,N/A,,Mostly Cloudy,0,2013-05-08 11:35:00
7:55 AM,52.9,51.4,95,29.99,5.0,Calm,Calm,-,N/A,,Overcast,0,2013-05-08 11:55:00
8:15 AM,53.1,51.8,95,29.99,5.0,Calm,Calm,-,N/A,,Overcast,0,2013-05-08 12:15:00
8:35 AM,53.8,52.3,95,29.99,7.0,Calm,Calm,-,N/A,,Overcast,0,2013-05-08 12:35:00
8:55 AM,55.2,53.1,92,29.99,10.0,Calm,Calm,-,N/A,,Mostly Cloudy,0,2013-05-08 12:55:00
9:15 AM,55.6,53.1,91,30.00,10.0,Calm,Calm,-,N/A,,Mostly Cloudy,0,2013-05-08 13:15:00
9:35 AM,57.0,53.4,88,30.00,10.0,SW,3.5,-,N/A,,Overcast,230,2013-05-08 13:35:00
9:55 AM,58.1,53.8,86,30.01,10.0,SW,4.6,-,N/A,,Overcast,220,2013-05-08 13:55:00
10:15 AM,58.3,53.6,84,30.01,10.0,SW,4.6,-,N/A,,Overcast,220,2013-05-08 14:15:00
10:35 AM,59.0,53.6,82,30.01,10.0,Calm,Calm,-,N/A,,Overcast,0,2013-05-08 14:35:00
10:55 AM,60.1,53.6,79,30.01,10.0,South,3.5,-,N/A,,Overcast,170,2013-05-08 14:55:00
11:15 AM,60.3,53.8,79,30.02,10.0,Calm,Calm,-,N/A,,Overcast,0,2013-05-08 15:15:00
11:35 AM,60.3,54.0,80,30.02,10.0,Calm,Calm,-,N/A,,Overcast,0,2013-05-08 15:35:00
11:55 AM,60.6,55.0,82,30.02,10.0,South,4.6,-,N/A,,Overcast,170,2013-05-08 15:55:00
12:15 PM,62.2,54.5,76,30.01,10.0,SSE,5.8,-,N/A,,Overcast,150,2013-05-08 16:15:00
12:35 PM,62.6,55.2,77,30.00,10.0,SSE,3.5,-,N/A,,Overcast,160,2013-05-08 16:35:00
12:55 PM,63.7,53.1,68,29.99,10.0,South,5.8,-,N/A,,Overcast,190,2013-05-08 16:55:00
1:15 PM,63.9,53.1,68,29.99,10.0,SSE,4.6,-,N/A,,Overcast,160,2013-05-08 17:15:00
1:35 PM,66.0,52.3,61,29.98,10.0,South,9.2,-,N/A,,Mostly Cloudy,190,2013-05-08 17:35:00
1:55 PM,66.2,53.4,63,29.97,10.0,South,11.5,-,N/A,,Mostly Cloudy,170,2013-05-08 17:55:00
2:15 PM,66.4,53.4,63,29.97,10.0,SSW,10.4,16.1,N/A,,Mostly Cloudy,210,2013-05-08 18:15:00
2:35 PM,66.4,53.1,62,29.96,10.0,South,8.1,-,N/A,,Mostly Cloudy,190,2013-05-08 18:35:00
2:55 PM,64.4,55.0,72,29.97,7.0,SW,8.1,-,0.01,Rain,Light Rain,220,2013-05-08 18:55:00
3:15 PM,65.3,53.6,66,29.96,10.0,SW,6.9,-,N/A,,Overcast,220,2013-05-08 19:15:00
3:35 PM,64.8,53.8,68,29.96,10.0,WSW,3.5,-,N/A,Rain,Light Rain,250,2013-05-08 19:35:00
3:55 PM,64.8,55.2,71,29.95,10.0,WSW,3.5,-,N/A,,Overcast,240,2013-05-08 19:55:00
4:15 PM,64.4,57.4,78,29.95,10.0,Calm,Calm,-,N/A,,Overcast,0,2013-05-08 20:15:00
4:35 PM,64.4,57.9,79,29.95,10.0,Calm,Calm,-,N/A,,Overcast,0,2013-05-08 20:35:00
4:55 PM,64.8,54.9,70,29.96,10.0,SW,4.6,-,N/A,,Overcast,230,2013-05-08 20:55:00
5:15 PM,65.3,54.3,68,29.95,10.0,Calm,Calm,-,N/A,Rain,Light Rain,0,2013-05-08 21:15:00
5:35 PM,65.3,54.7,68,29.94,10.0,South,3.5,-,N/A,,Overcast,190,2013-05-08 21:35:00
5:55 PM,65.3,56.1,72,29.94,10.0,South,3.5,-,N/A,,Overcast,190,2013-05-08 21:55:00
6:15 PM,64.9,56.1,73,29.94,10.0,Calm,Calm,-,N/A,Rain,Light Rain,0,2013-05-08 22:15:00
6:35 PM,64.6,57.4,77,29.94,10.0,Calm,Calm,-,N/A,,Overcast,0,2013-05-08 22:35:00
6:55 PM,63.7,57.6,80,29.94,10.0,Calm,Calm,-,N/A,,Light Drizzle,0,2013-05-08 22:55:00
7:15 PM,63.1,57.2,81,29.94,10.0,Calm,Calm,-,N/A,,Overcast,0,2013-05-08 23:15:00
7:35 PM,62.8,58.1,85,29.95,10.0,Calm,Calm,-,N/A,,Overcast,0,2013-05-08 23:35:00
7:55 PM,61.9,59.0,90,29.97,7.0,NW,4.6,-,0.01,Rain,Heavy Rain,310,2013-05-08 23:55:00
8:15 PM,61.0,58.5,91,29.97,10.0,NNW,3.5,-,N/A,,Mostly Cloudy,330,2013-05-09 00:15:00
8:35 PM,60.6,58.5,93,29.98,10.0,NW,3.5,-,N/A,Rain,Light Rain,320,2013-05-09 00:35:00
8:55 PM,60.1,58.1,93,29.98,10.0,Calm,Calm,-,0.01,,Light Drizzle,0,2013-05-09 00:55:00
9:15 PM,59.9,57.7,93,29.99,10.0,NW,3.5,-,N/A,,Mostly Cloudy,310,2013-05-09 01:15:00
9:35 PM,59.5,57.6,93,29.99,10.0,WNW,3.5,-,N/A,,Mostly Cloudy,300,2013-05-09 01:35:00
9:55 PM,59.4,57.6,94,30.00,10.0,WNW,3.5,-,N/A,,Mostly Cloudy,300,2013-05-09 01:55:00
10:15 PM,59.0,57.2,94,30.01,10.0,Calm,Calm,-,N/A,,Mostly Cloudy,0,2013-05-09 02:15:00
10:35 PM,58.5,56.7,94,30.01,10.0,Calm,Calm,-,N/A,,Scattered Clouds,0,2013-05-09 02:35:00
10:55 PM,58.1,56.3,94,30.01,10.0,Calm,Calm,-,N/A,,Scattered Clouds,0,2013-05-09 02:55:00
11:15 PM,57.7,55.9,94,30.01,7.0,Calm,Calm,-,N/A,,Clear,0,2013-05-09 03:15:00
11:35 PM,57.2,55.6,94,30.00,5.0,Calm,Calm,-,N/A,,Clear,0,2013-05-09 03:35:00